Regional Weather Roundup
Issued by NWS

Home | Current Version | Previous Version | Graphics & Text | Print | Product List | Glossary Off
Versions: 1 2 3 4 5 6 7 8 9 10 11 12 13 14 15 16 17 18 19 20 21 22 23 24 25 26 27 28 29 30 31 32 33 34 35 36 37 38 39 40 41 42 43 44 45 46 47 48 49 50

000
ASUS43 KMKX 222100
RWRWI

WISCONSIN REGIONAL WEATHER ROUNDUP
NATIONAL WEATHER SERVICE MILWAUKEE/SULLIVAN WI
400 PM CDT THU JUN 22 2017

NOTE: "FAIR" INDICATES FEW OR NO CLOUDS BELOW 12,000 FEET WITH NO
SIGNIFICANT WEATHER AND/OR OBSTRUCTIONS TO VISIBILITY.

WIZ001-002-006>008-014>016-023>028-222200-
NORTHWEST WISCONSIN

CITY           SKY/WX    TMP DP  RH WIND       PRES   REMARKS
SUPERIOR ARPT  NOT AVBL
ASHLAND        MOSUNNY   73  53  49 SW7       29.69R
HAYWARD        CLOUDY    68  57  68 SW9       29.73R
SIREN          CLOUDY    68  60  74 SW3       29.73F
CUMBERLAND     LGT RAIN  63  61  94 SW3       29.74S
RICE LAKE      LGT RAIN  65  63  93 W3        29.76F
CHETEK         RAIN      65  64  99 CALM      29.72F
LADYSMITH      DRIZZLE   65  64  94 W6        29.77R
EAU CLAIRE     NOT AVBL
MENOMONIE      RAIN      69  69  98 CALM      29.73F
NEW RICHMOND   RAIN      65  64  95 CALM      29.75S
OSCEOLA        LGT RAIN  66  66 100 SW6       29.78R
$$

WIZ003>005-009-010-017-018-222200-
NORTH CENTRAL WISCONSIN

CITY           SKY/WX    TMP DP  RH WIND       PRES   REMARKS
MANITOWISH WTR CLOUDY    65  63  93 SW9       29.71S
ARBOR VITAE    CLOUDY    64  62  93 SW6       29.72R
WOODRUFF       CLOUDY    64  62  93 SW6       29.72R
RHINELANDER    LGT RAIN  65  65 100 W8        29.76R
EAGLE RIVER    LGT RAIN  64  63  97 W8        29.73R
LAND O LAKES   CLOUDY    66  62  87 W3        29.73R
PHILLIPS       LGT RAIN  63  63 100 W5        29.74R
TOMAHAWK       NOT AVBL
MEDFORD        RAIN      65  63  91 S7        29.73R
MERRILL        LGT RAIN  67  67  97 S5        29.72F
$$

WIZ029-030-035-036-043>047-222200-
CENTRAL WISCONSIN

CITY           SKY/WX    TMP DP  RH WIND       PRES   REMARKS
WAUSAU         CLOUDY    66  65  96 S8        29.71S
MOSINEE        LGT RAIN  64  64 100 CALM      29.73F
MARSHFIELD     CLOUDY    66  63  90 CALM      29.72F
STEVENS POINT  LGT RAIN  66  66 100 CALM      29.73F
WAUPACA        RAIN      73  71  95 SW6       29.75R
WAUTOMA        LGT RAIN  71  68  90 SW5       29.76R
WISC RAPIDS    LGT RAIN  68  67  96 S7        29.75F
CAMP DOUGLAS   NOT AVBL
$$

WIZ011>013-019>022-031-037>040-048>050-222200-
NORTHEAST WISCONSIN

CITY           SKY/WX    TMP DP  RH WIND       PRES   REMARKS
ANTIGO         CLOUDY    66  65  97 SW7       29.74S
SHAWANO        CLOUDY    71  68  90 SW6       29.73R
OCONTO         CLOUDY    69  67  93 W8        29.71F
STURGEON BAY   LGT RAIN  68  66  93 SW5         N/A
GREEN BAY      CLOUDY    73  71  93 W6        29.73F
MANITOWOC      NOT AVBL
APPLETON       LGT RAIN  72  64  78 SW10      29.74S
CLINTONVILLE   LGT RAIN  70  68  94 NW5       29.72R
OSHKOSH        CLOUDY    74  65  73 W7        29.74S
$$

WIZ032>034-041-042-053>061-222200-
SOUTHWEST WISCONSIN

CITY           SKY/WX    TMP DP  RH WIND       PRES   REMARKS
LA CROSSE      TSTM      71  69  93 CALM      29.73R
SPARTA         TSTM      67  67  98 E3        29.71F
VIROQUA        CLOUDY    69  67  95 CALM      29.75F
BOSCOBEL       CLOUDY    77  70  79 E3        29.71F
PRAIRIE DU CHI CLOUDY    79  68  69 CALM      29.71F HX  81
PLATTEVILLE    CLOUDY    82  71  69 S10       29.74S HX  87
$$

WIZ056-057-062-063-064-067-068-222200-
SOUTH CENTRAL WISCONSIN

CITY           SKY/WX    TMP DP  RH WIND       PRES   REMARKS
REEDSBURG      CLOUDY    69  69  98 CALM      29.75R
BARABOO/DELLS  CLOUDY    70  65  83 NW7       29.79R
LONE ROCK      NOT AVBL
MINERAL POINT  CLOUDY    81  72  74 S3        29.75S HX  84
MADISON        CLOUDY    77  67  71 CALM      29.73F
MIDDLETON      CLOUDY    78  67  71 E5        29.74F
WATERTOWN      CLOUDY    75  68  79 NE3       29.76F
MONROE         CLOUDY    81  66  61 S12       29.73F HX  83
JANESVILLE     PTSUNNY   84  70  61 SW9       29.72F HX  88
$$

WIZ051-052-058>065-066-070>072-222200-
SOUTHEAST WISCONSIN

CITY           SKY/WX    TMP DP  RH WIND       PRES   REMARKS
MILWAUKEE      CLOUDY    86  66  51 SW9G20    29.74F HX  88
WAUKESHA       MOSUNNY   73  66  78 N7        29.77F
MILWAUKEE/TIMM LGT RAIN  75  66  73 N10       29.76F
RACINE         CLOUDY    87  67  51 S17G23    29.76F HX  90
KENOSHA        PTSUNNY   85  69  58 SW10      29.76S HX  89
FOND DU LAC    CLOUDY    73  67  81 SW3       29.75F
SHEBOYGAN      CLOUDY    75  67  76 NW6       29.74F
WEST BEND      MOSUNNY   73  66  78 CALM      29.77F
JUNEAU         CLOUDY    74  64  72 S6        29.75F
$$

LSZ147-162-222200-
LAKE SUPERIOR

STATION/POSITION TIME  TEMP    WIND        PRES    WAVE
                       AIR SEA DIR/SP/G            HT/PER
                 (UTC) (F)     (DEG/KT/KT) (MB)    (FT/S)
W MID LAKE BUOY  1950   47 39  250/ 10/ 10 1004.0F   1
DEVILS ISLAND    2000   65     230/ 11/ 14 1004.0F
SAXON HARBOR     2040   73     240/  4/ 11 1004.7R
$$

LMZ867-665-643>646-222200-
LAKE MICHIGAN

STATION/POSITION TIME  TEMP    WIND        PRES    WAVE
                       AIR SEA DIR/SP/G            HT/PER
                 (UTC) (F)     (DEG/KT/KT) (MB)    (FT/S)
CHAMBERS ISLAND  2040   68     200/  5/ 10 1004.7F
N MID LAKE BUOY  1950   59 55  210/ 10/ 12 1006.8R   3/ 5
NORTHPORT PIER   2040   68     260/  3/  7 1005.4F
KEWAUNEE LAKESHO 2030          260/ 10/ 15 1006.4R
SHEBOYGAN LAKESH 2000   76     250/ 11/ 13 1007.5R
PORT WASHINGTON  2040   68     150/  2/  3 1008.8F
ATWATER BUOY     1909      55   40/  4/  4 1008.0R
MILWAUKEE LAKESH 2030   68      50/  6/  6   N/A
S MID LAKE BUOY  1950   66 61  200/ 10/ 10 1008.6F   2/ 4
KENOSHA   LAKESH 2000   85     210/ 10/ 19 1007.5
$$

TC  - TEMPERATURE IN CELSIUS
VSB - VISIBILITY IN STATUTE MILES
WCI - WIND CHILL INDEX
HX  - HEAT INDEX





USA.gov is the U.S. government's official web portal to all federal, state and local government web resources and services.